FREGAT DEB

基本信息
目录编号:
43395
目录名称:
FREGAT DEB
国际标识:
2011-001J
轨道中心:
EARTH
物体状态:
在轨
发射日期:
2011-01-20 UTC
轨道信息
数据来源: 国际轨道数据
星历时间: 2026-02-15T12:48:54+0800
半长轴: 41456.999km
偏心率: 0.0101231
轨道倾角: 10.056°
近地点辐角: 55.312°
升交点赤经: 43.855°
平近点角: 5.939°
近地点: 34659.188km
远地点: 35498.536km
周期: 1400.092分钟
每日圈数: 1.028504
详细信息
发射场:
TTMTR
轨道高度:
MEO
数据来源:
AOE Integration Group
参考系:
TEME
时间系统:
UTC
历元类型:
SGP4
2D轨道图
3D轨道图
轨道高度分析图
轨道倾角分析图
轨道综合分析图
查看轨道综合分析图